This demonstration page uses our WeatherBlox Daily Observations layout. Learn more.

40.92945, -100.16068

Hourly Observations for March 8, 2018

Temp ( °F °C ) Dew Point ( °F °C ) Humidity (%) Winds ( mph kmh ) Pressure ( in mb ) Visibility ( mi km ) Precip ( " mm )
12:15 am 00:15 Clear 22 -5.4 17 -8.5 79 79 NNE 3 6 30.36 1028 10 16.0934 0 0
12:35 am 00:35 Clear 21 -6 16 -9 80 80 N 3 6 30.36 1028 10 16.0934 0 0
12:55 am 00:55 Clear 19 -7.4 14 -10.1 81 81 W 5 7 30.39 1029 10 16.0934 0 0
1:15 am 01:15 Clear 18 -7.6 14 -10.1 82 82 WNW 3 6 30.39 1029 10 16.0934 0 0
1:35 am 01:35 Clear 20 -6.7 16 -9 84 84 Calm 30.39 1029 10 16.0934 0 0
1:55 am 01:55 Clear 19 -7.4 14 -9.8 83 83 W 5 7 30.39 1029 10 16.0934 0 0
2:15 am 02:15 Clear 19 -7.4 15 -9.6 84 84 W 3 6 30.39 1029 10 16.0934 0 0
2:35 am 02:35 Clear 19 -7.2 15 -9.6 83 83 Calm 30.36 1028 10 16.0934 0 0
2:55 am 02:55 Clear 19 -7.2 15 -9.6 83 83 Calm 30.36 1028 10 16.0934 0 0
3:15 am 03:15 Clear 19 -7.3 14 -9.9 82 82 Calm 30.36 1028 10 16.0934 0 0
3:35 am 03:35 Clear 20 -6.8 15 -9.7 80 80 Calm 30.36 1028 10 16.0934 0 0
3:55 am 03:55 Clear 18 -7.7 13 -10.3 82 82 Calm 30.36 1028 10 16.0934 0 0
4:15 am 04:15 Clear 18 -8 14 -10 86 86 Calm 30.36 1028 10 16.0934 0 0
4:35 am 04:35 Clear 18 -7.6 15 -9.5 86 86 Calm 30.33 1027 10 16.0934 0 0
4:55 am 04:55 Clear 18 -7.6 15 -9.6 86 86 Calm 30.33 1027 10 16.0934 0 0
5:15 am 05:15 Clear 17 -8.4 13 -10.4 86 86 Calm 30.33 1027 10 16.0934 0 0
5:35 am 05:35 Clear 17 -8.4 14 -10.2 87 87 Calm 30.33 1027 10 16.0934 0 0
5:55 am 05:55 Clear 17 -8.2 13 -10.3 85 85 Calm 30.33 1027 10 16.0934 0 0
6:15 am 06:15 Clear 18 -8 13 -10.3 84 84 Calm 30.3 1026 10 16.0934 0 0
6:35 am 06:35 Clear 18 -8 14 -10 86 86 Calm 30.3 1026 10 16.0934 0 0
6:55 am 06:55 Clear 18 -7.9 13 -10.3 83 83 Calm 30.3 1026 10 16.0934 0 0
7:15 am 07:15 Sunny 16 -8.8 13 -10.7 86 86 ENE 3 6 30.3 1026 10 16.0934 0 0
7:35 am 07:35 Sunny 19 -7.5 15 -9.5 86 86 ENE 3 6 30.3 1026 10 16.0934 0 0
7:55 am 07:55 Sunny 21 -6.2 16 -8.8 82 82 Calm 30.27 1025 10 16.0934 0 0
8:15 am 08:15 Sunny 24 -4.2 19 -7.4 79 79 Calm 30.24 1024 10 16.0934 0 0
8:35 am 08:35 Sunny 28 -2.5 20 -6.5 74 74 S 3 6 30.24 1024 10 16.0934 0 0
8:55 am 08:55 Sunny 32 -0.1 21 -6.1 64 64 SSW 9 15 30.21 1023 10 16.0934 0 0
9:15 am 09:15 Sunny 33 0.5 20 -6.6 59 59 S 10 17 30.18 1022 10 16.0934 0 0
9:35 am 09:35 Sunny 33 0.8 19 -7.4 55 55 S 10 17 30.18 1022 10 16.0934 0 0
9:55 am 09:55 Sunny 35 1.5 18 -7.9 50 50 S 10 17 30.15 1021 10 16.0934 0 0
10:15 am 10:15 Sunny 35 1.9 17 -8.5 46 46 S 13 20 30.12 1020 10 16.0934 0 0
10:35 am 10:35 Sunny 37 2.9 17 -8.6 43 43 S 10 17 30.12 1020 10 16.0934 0 0
10:55 am 10:55 Sunny 38 3.6 17 -8.3 42 42 S 13 20 30.12 1020 10 16.0934 0 0
11:15 am 11:15 Sunny 40 4.5 16 -8.8 38 38 S 15 24 30.09 1019 10 16.0934 0 0
11:35 am 11:35 Sunny 42 5.8 16 -8.7 35 35 S 18 30 30.09 1019 10 16.0934 0 0
11:55 am 11:55 Sunny 42 5.5 17 -8.3 37 37 S 18 30 30.09 1019 10 16.0934 0 0
12:15 pm 12:15 Sunny 44 6.5 18 -7.8 36 36 S 14 22 30.09 1019 10 16.0934 0 0
12:35 pm 12:35 Sunny 46 7.8 18 -7.7 33 33 S 13 20 30.03 1017 10 16.0934 0 0
12:55 pm 12:55 Sunny 47 8.6 18 -8 30 30 SSW 15 24 30.03 1017 10 16.0934 0 0
1:15 pm 13:15 Sunny 48 8.9 17 -8.1 29 29 SSW 16 26 30 1016 10 16.0934 0 0
1:35 pm 13:35 Sunny 49 9.7 18 -7.6 29 29 SSW 14 22 29.97 1015 10 16.0934 0 0
1:55 pm 13:55 Sunny 50 10.1 18 -7.9 28 28 S 10 17 29.97 1015 10 16.0934 0 0
2:15 pm 14:15 Sunny 51 10.7 18 -8 26 26 S 12 19 29.94 1014 10 16.0934 0 0
2:35 pm 14:35 Sunny 53 11.4 18 -7.7 26 26 S 16 26 29.94 1014 10 16.0934 0 0
2:55 pm 14:55 Sunny 54 12.3 18 -7.9 24 24 S 13 20 29.88 1012 10 16.0934 0 0
3:15 pm 15:15 Sunny 55 12.8 17 -8.2 23 23 S 10 17 29.88 1012 10 16.0934 0 0
3:35 pm 15:35 Sunny 55 12.8 18 -7.9 23 23 S 13 20 29.88 1012 10 16.0934 0 0
3:55 pm 15:55 Sunny 56 13.3 17 -8.3 22 22 S 12 19 29.88 1012 10 16.0934 0 0
4:15 pm 16:15 Sunny 56 13.6 18 -7.7 22 22 S 8 13 29.88 1012 10 16.0934 0 0
4:35 pm 16:35 Sunny 57 14.1 16 -8.7 20 20 S 8 13 29.88 1012 10 16.0934 0 0
4:55 pm 16:55 Sunny 57 14 16 -9 20 20 WSW 5 7 29.88 1012 10 16.0934 0 0
5:15 pm 17:15 Sunny 57 14 17 -8.5 20 20 SSE 3 6 29.88 1012 10 16.0934 0 0
5:35 pm 17:35 Sunny 57 14 17 -8.5 20 20 SSW 3 6 29.85 1011 10 16.0934 0 0
5:55 pm 17:55 Sunny 56 13.1 19 -7.3 24 24 SSE 3 6 29.88 1012 10 16.0934 0 0
6:15 pm 18:15 Sunny 50 10.1 19 -7.5 28 28 ESE 9 15 29.88 1012 10 16.0934 0 0
6:35 pm 18:35 Sunny 48 9 18 -7.6 30 30 SE 12 19 29.88 1012 10 16.0934 0 0
6:55 pm 18:55 Clear 46 7.7 19 -7.5 33 33 ESE 12 19 29.91 1013 10 16.0934 0 0
7:15 pm 19:15 Clear 44 6.5 19 -7.4 37 37 SE 9 15 29.91 1013 10 16.0934 0 0
7:35 pm 19:35 Clear 42 5.7 19 -7.5 38 38 SE 9 15 29.91 1013 10 16.0934 0 0
7:55 pm 19:55 Clear 41 5.2 18 -7.7 39 39 SE 9 15 29.94 1014 10 16.0934 0 0
8:15 pm 20:15 Clear 39 4.1 18 -7.8 42 42 SE 8 13 29.94 1014 10 16.0934 0 0
8:35 pm 20:35 Clear 39 4 17 -8.2 41 41 SE 10 17 29.94 1014 10 16.0934 0 0
8:55 pm 20:55 Clear 38 3.3 17 -8.1 43 43 SE 9 15 29.94 1014 10 16.0934 0 0
9:15 pm 21:15 Clear 37 2.7 17 -8.1 45 45 SE 8 13 29.94 1014 10 16.0934 0 0
9:35 pm 21:35 Clear 35 1.7 18 -8 49 49 SE 8 13 29.97 1015 10 16.0934 0 0
9:55 pm 21:55 Clear 34 1 18 -7.7 53 53 SE 8 13 29.97 1015 10 16.0934 0 0
10:15 pm 22:15 Clear 34 1.1 19 -7.5 53 53 SE 7 11 29.97 1015 10 16.0934 0 0
10:35 pm 22:35 Clear 35 1.7 18 -7.8 50 50 SE 7 11 29.97 1015 10 16.0934 0 0
10:55 pm 22:55 Clear 34 1.3 18 -8 50 50 ESE 8 13 29.94 1014 10 16.0934 0 0
11:15 pm 23:15 Clear 34 1.3 18 -8 50 50 SE 8 13 29.94 1014 10 16.0934 0 0
11:35 pm 23:35 Partly Cloudy 34 1 19 -7.5 53 53 SE 7 11 29.94 1014 10 16.0934 0 0
11:55 pm 23:55 Partly Cloudy 35 1.4 19 -7.4 52 52 ESE 7 11 29.94 1014 10 16.0934 0 0

Powered by AerisWeather